Location: Mapua
(41.2500°S, 173.1000°E)
Time: 07:38:20
(UTC+12:00)

N. Korean satellite - Visible Passes

Search period start: 25 May 2017 00:00
Search period end: 04 June 2017 00:00
Orbit: 463 x 516 km, 97.2° (Epoch: 24 May)

Date Brightness Start Highest point End Pass type
(mag) Time Alt. Az. Time Alt. Az. Time Alt. Az.
25 May 8.0 06:15:17 10° NE 06:18:36 38° ESE 06:21:55 10° S visible
26 May 9.1 05:53:15 10° ENE 05:55:55 20° ESE 05:58:35 10° SSE visible
27 May 9.7 05:32:12 10° E 05:33:18 11° ESE 05:34:24 10° SE visible
27 May 6.9 07:03:02 10° N 07:06:26 45° W 07:09:52 10° SSW visible
28 May 6.5 06:40:04 10° NNE 06:43:36 85° ESE 06:47:10 10° S visible
29 May 7.8 06:17:30 10° NE 06:20:50 40° ESE 06:24:11 10° S visible
30 May 9.0 05:55:23 10° ENE 05:58:08 21° ESE 06:00:53 10° SSE visible
31 May 9.7 05:34:08 10° E 05:35:30 12° ESE 05:36:52 10° SE visible
31 May 7.0 07:05:19 10° N 07:08:40 41° W 07:12:03 10° SSW visible
01 Jun 6.5 06:42:18 10° NNE 06:45:48 88° WNW 06:49:22 10° SSW visible
02 Jun 7.7 06:19:40 10° NNE 06:23:01 44° ESE 06:26:24 10° S visible
03 Jun 8.9 05:57:29 10° ENE 06:00:18 23° ESE 06:03:08 10° SSE visible
